n   0.11542081     Peri.  115.94300     -0.83473113     -0.54605437

a   4.1777903      Node    31.10701     +0.44311871     -0.74270282

e   0.1803504      Incl.    7.90494     +0.32690939     -0.38757856

P   8.54 (+/- 0.63 day)

From 24 observations 2001 Dec. 9-2002 Mar. 4, mean residual 0".62.





NAKANO

         **** Don't distribute anyone except personal use only ****

                (C) Copyright 2002 OAA/ComputingSection

write mail from CFAD0::NAKANO on 2002-11-19 01:50:02(JST).

 

    P/2001 YX127 (LINEAR) 

T 2003 Mar. 13.22380 TT                                 Nakano

q   3.4196856            (2000.0)            P               Q

n   0.11573136     Peri.  116.58893     -0.84464791     -0.53046043

a   4.1703133      Node    31.52499     +0.42901380     -0.75119028

e   0.1799931      Incl.    7.91304     +0.32018286     -0.39284207

P   8.52

From 22 observations 2001 Dec. 9-2002 Feb. 15.



NAKANO

         **** Don't distribute anyone except personal use only ****

                (C) Copyright 2002 OAA/ComputingSection

write mail from CFAD0::NAKANO on 2002-02-25 23:29:25(JST).

 

◎P/2001 YX127の軌道と予報位置です



 久万の中村彰正氏から2月15日の観測が報告されました.氏の CCD全光度は

20.0等でした. CCD全光度の報告は中村氏が初めてです.氏によると,60cmで

は,近傍の恒星との違いがわずかに認められるだけとのことです.



    P/2001 YX127 (LINEAR) 

T 2003 Mar. 13.30515 TT                                 Nakano

q   3.4201243            (2000.0)            P               Q

n   0.11574859     Peri.  116.58524     -0.84463536     -0.53047924

a   4.1698993      Node    31.52742     +0.42902620     -0.75118170

e   0.1798065      Incl.    7.91344     +0.32019934     -0.39283309

P   8.52

From 20 observations 2001 Dec. 9-2002 Feb. 15.

 

Date/        TT  R.A.(2000) Decl.     Delta   r     Daily motion  Mag.  Moon Age

              h    h  m       。  ,                      ,  / PA 。  m1      。

2002 Feb. 15 12  04 30.95  +29 03.2   3.363  3.724     4.5 /  95  19.8   70  .09

          16 12  04 31.30  +29 02.8   3.376  3.723     4.8 /  94  19.9   59  .15

          17 12  04 31.66  +29 02.5   3.389  3.721     5.0 /  93  19.9   47  .22

          18 12  04 32.04  +29 02.2   3.402  3.720     5.3 /  93  19.9   35  .31

          19 12  04 32.45  +29 01.9   3.416  3.719     5.5 /  92  19.9   24  .40

          20 12  04 32.87  +29 01.7   3.429  3.717     5.8 /  92  19.9   13  .50

          21 12  04 33.31  +29 01.5   3.442  3.716     6.0 /  91  19.9    9  .60

          22 12  04 33.77  +29 01.3   3.455  3.715     6.3 /  91  19.9   18  .70

          23 12  04 34.25  +29 01.2   3.469  3.713     6.5 /  91  19.9   30  .80

          24 12  04 34.74  +29 01.1   3.482  3.712     6.7 /  90  19.9   44  .88

          25 12  04 35.26  +29 01.0   3.496  3.711     7.0 /  90  19.9   58  .95

          26 12  04 35.79  +29 01.0   3.509  3.709     7.2 /  90  19.9   73  .99

          27 12  04 36.34  +29 01.0   3.522  3.708     7.4 /  90  19.9   88 1.00

          28 12  04 36.91  +29 01.0   3.536  3.707     7.7 /  90  19.9  103  .98

     Mar.  1 12  04 37.49  +29 01.1   3.549  3.705     7.9 /  89  19.9  118  .93

           2 12  04 38.09  +29 01.2   3.563  3.704     8.1 /  89  19.9  132  .86

           3 12  04 38.71  +29 01.3   3.576  3.703     8.3 /  89  20.0  147  .77

           4 12  04 39.34  +29 01.5   3.590  3.701     8.5 /  89  20.0  160  .67

           5 12  04 40.00  +29 01.6   3.603  3.700     8.8 /  89  20.0  171  .56

           6 12  04 40.66  +29 01.8   3.617  3.699     9.0 /  89  20.0  169  .45

           7 12  04 41.35  +29 02.1   3.630  3.697     9.2 /  88  20.0  158  .35

           8 12  04 42.05  +29 02.3   3.643  3.696     9.4 /  88  20.0  146  .26

           9 12  04 42.76  +29 02.6   3.657  3.695     9.6 /  88  20.0  135  .18

          10 12  04 43.49  +29 02.9   3.670  3.693     9.8 /  88  20.0  123  .11

          11 12  04 44.24  +29 03.2   3.684  3.692    10.0 /  88  20.0  111  .06

          12 12  04 45.00  +29 03.5   3.697  3.691    10.2 /  88  20.0  100  .02

          13 12  04 45.78  +29 03.9   3.710  3.689    10.4 /  88  20.0   88  .00

          14 12  04 46.57  +29 04.3   3.723  3.688    10.6 /  88  20.0   76  .00

          15 12  04 47.38  +29 04.7   3.737  3.687    10.8 /  88  20.0   65  .02

NAKANO

         **** Don't distribute anyone except personal use only ****

                (C) Copyright 2002 OAA/ComputingSection

write mail from CFAD0::NAKANO on 2002-02-17 02:32:36(JST).

 



戻ります。